This demonstration page uses our WeatherBlox Daily Observations layout. Learn more.

Left ArrowRight Arrow

Hourly Observations for January 27, 2018

Temp ( °F °C ) Dew Point ( °F °C ) Humidity (%) Winds ( mph kmh ) Pressure ( in mb ) Visibility ( mi km ) Precip ( " mm )
12:10 am 00:10 Mostly Clear 43 6.1 42 5.6 97 97 N 13 20 30.21 1023 10 16 0.00 0.00
12:26 am 00:26 Mostly Cloudy 45 7.2 43 6.1 93 93 NNE 10 17 30.18 1022 10 16 0.00 0.00
12:53 am 00:53 Mostly Cloudy 44 6.7 43 6.1 96 96 NNE 9 15 30.11 1020 10 16 0.00 0.00
1:01 am 01:01 Partly Cloudy 44 6.7 42 5.6 93 93 NE 7 11 30.18 1022 10 16 0.00 0.00
1:53 am 01:53 Clear 39 3.9 38 3.3 96 96 NNW 7 11 30.11 1020 8 13 0.00 0.00
2:53 am 02:53 Clear 35 1.7 27 -2.8 72 72 N 10 17 30.14 1021 10 16 0.00 0.00
3:53 am 03:53 Clear 37 2.8 20 -6.7 50 50 N 12 19 30.16 1021 10 16 0.00 0.00
4:53 am 04:53 Clear 36 2.2 22 -5.6 57 57 N 9 15 30.18 1022 10 16 0.00 0.00
5:53 am 05:53 Clear 35 1.7 23 -5 61 61 N 10 17 30.21 1023 10 16 0.00 0.00
6:53 am 06:53 Clear 31 -0.6 22 -5.6 69 69 WNW 10 17 30.27 1025 10 16 0.00 0.00
7:53 am 07:53 Sunny 32 0 22 -5.6 66 66 NW 9 15 30.32 1027 10 16 0.00 0.00
8:53 am 08:53 Sunny 38 3.3 23 -5 55 55 NNW 10 17 30.33 1027 10 16 0.00 0.00
9:53 am 09:53 Sunny 42 5.6 22 -5.6 45 45 N 15 24 30.37 1028 10 16 0.00 0.00
10:53 am 10:53 Sunny 46 7.8 22 -5.6 38 38 N 10 17 30.36 1028 10 16 0.00 0.00
11:53 am 11:53 Sunny 52 11.1 21 -6.1 30 30 N 8 13 30.34 1028 10 16 0.00 0.00
12:53 pm 12:53 Sunny 55 12.8 21 -6.1 26 26 NE 9 15 30.29 1026 10 16 0.00 0.00
1:53 pm 13:53 Sunny 57 13.9 20 -6.7 24 24 NNE 8 13 30.26 1025 10 16 0.00 0.00
2:53 pm 14:53 Sunny 59 15 19 -7.2 21 21 undefined N/A 30.24 1024 10 16 0.00 0.00
3:53 pm 15:53 Sunny 60 15.6 18 -7.8 19 19 NNE 7 11 30.23 1024 10 16 0.00 0.00
4:53 pm 16:53 Sunny 60 15.6 18 -7.8 19 19 Calm 30.22 1023 10 16 0.00 0.00
5:53 pm 17:53 Sunny 58 14.4 17 -8.3 20 20 NNE 5 7 30.22 1024 10 16 0.00 0.00
6:53 pm 18:53 Clear 49 9.4 16 -8.9 27 27 NE 5 7 30.26 1025 10 16 0.00 0.00
7:53 pm 19:53 Clear 44 6.7 15 -9.4 31 31 ENE 6 9 30.29 1026 10 16 0.00 0.00
8:53 pm 20:53 Clear 40 4.4 15 -9.4 36 36 NE 5 7 30.29 1026 10 16 0.00 0.00
9:53 pm 21:53 Clear 37 2.8 14 -10 39 39 NNE 3 6 30.30 1026 10 16 0.00 0.00
10:53 pm 22:53 Clear 32 0 13 -10.6 45 45 N 6 9 30.32 1027 10 16 0.00 0.00
11:53 pm 23:53 Clear 30 -1.1 12 -11.1 47 47 NNW 9 15 30.33 1027 10 16 0.00 0.00

Powered by AerisWeather